QPF
0.00 0.00 0.00 0.00 0.00 0.00 0.00 0.00 0.00 0.00 0.00 0.00 0.00 0.00 0.00 0.00 0.00 0.00 0.00 0.00 0.00 0.00 0.00 0.00 0.00 0.00 0.00 0.01 0.04 0.08 0.10 0.07 0.06 0.12 0.08 0.05 0.01 0.00 0.00 0.00 0.01 0.03 0.05 0.04 0.02 0.06 0.06 0.07 0.01
0.00 0.00 0.00 0.00 0.00 0.00 0.00 0.00 0.00 0.00 0.00 0.00 0.00 0.00 0.00 0.00 0.00 0.00 0.00 0.00 0.00 0.00 0.00 0.00 0.00 0.00 0.00 0.00 0.03 0.10 0.05 0.06 0.11 0.14 0.14 0.10 0.03 0.01 0.00 0.01 0.02 0.04 0.06 0.06 0.05 0.08 0.06 0.02 0.00
0.00 0.00 0.00 0.00 0.00 0.00 0.00 0.00 0.00 0.00 0.00 0.00 0.00 0.00 0.00 0.00 0.00 0.00 0.00 0.00 0.00 0.00 0.00 0.00 0.00 0.00 0.00 0.00 0.02 0.11 0.04 0.04 0.05 0.13 0.18 0.15 0.08 0.03 0.01 0.01 0.01 0.03 0.04 0.04 0.03 0.04 0.01 0.01 0.01
0.00 0.00 0.00 0.00 0.00 0.00 0.00 0.00 0.00 0.00 0.00 0.00 0.00 0.00 0.00 0.00 0.00 0.00 0.00 0.00 0.00 0.00 0.00 0.00 0.00 0.00 0.00 0.00 0.00 0.05 0.08 0.05 0.01 0.06 0.18 0.21 0.13 0.06 0.03 0.01 0.00 0.03 0.05 0.03 0.03 0.01 0.00 0.01 0.01
0.00 0.00 0.00 0.00 0.00 0.00 0.00 0.00 0.00 0.00 0.00 0.00 0.00 0.00 0.00 0.00 0.00 0.00 0.00 0.00 0.00 0.00 0.00 0.00 0.00 0.00 0.00 0.00 0.01 0.02 0.10 0.08 0.03 0.01 0.11 0.21 0.21 0.08 0.03 0.01 0.00 0.01 0.04 0.03 0.03 0.00 0.00 0.00 0.00
0.00 0.00 0.00 0.00 0.00 0.00 0.00 0.00 0.00 0.00 0.00 0.00 0.00 0.00 0.00 0.00 0.00 0.00 0.00 0.00 0.00 0.00 0.00 0.00 0.00 0.00 0.00 0.00 0.00 0.01 0.05 0.15 0.08 0.04 0.08 0.20 0.26 0.15 0.03 0.01 0.00 0.01 0.02 0.03 0.04 0.02 0.01 0.00 0.00
0.00 0.00 0.00 0.00 0.00 0.00 0.00 0.00 0.00 0.00 0.00 0.00 0.00 0.00 0.00 0.00 0.00 0.00 0.00 0.00 0.00 0.00 0.00 0.00 0.00 0.00 0.00 0.00 0.00 0.00 0.02 0.09 0.14 0.08 0.05 0.18 0.31 0.30 0.10 0.01 0.01 0.01 0.03 0.05 0.03 0.03 0.01 0.01 0.00
0.00 0.00 0.00 0.00 0.00 0.00 0.00 0.00 0.00 0.00 0.00 0.00 0.00 0.00 0.00 0.00 0.00 0.00 0.00 0.00 0.00 0.00 0.00 0.00 0.00 0.00 0.00 0.00 0.00 0.00 0.00 0.04 0.12 0.17 0.15 0.15 0.30 0.35 0.29 0.17 0.04 0.03 0.13 0.05 0.03 0.04 0.02 0.01 0.00
0.00 0.00 0.00 0.00 0.00 0.00 0.00 0.00 0.00 0.00 0.00 0.00 0.00 0.00 0.00 0.00 0.00 0.00 0.00 0.00 0.00 0.00 0.00 0.00 0.00 0.00 0.00 0.00 0.00 0.00 0.00 0.01 0.07 0.16 0.17 0.20 0.28 0.36 0.30 0.18 0.08 0.20 0.28 0.09 0.04 0.04 0.02 0.00 0.00
0.00 0.00 0.00 0.00 0.00 0.00 0.00 0.00 0.00 0.00 0.00 0.00 0.00 0.00 0.00 0.00 0.00 0.00 0.00 0.00 0.00 0.00 0.00 0.00 0.00 0.00 0.00 0.00 0.00 0.00 0.00 0.00 0.02 0.10 0.18 0.16 0.19 0.22 0.27 0.25 0.15 0.08 0.13 0.24 0.16 0.04 0.01 0.00 0.00
0.00 0.00 0.00 0.00 0.00 0.00 0.00 0.00 0.00 0.00 0.00 0.00 0.00 0.00 0.00 0.00 0.00 0.00 0.00 0.00 0.00 0.00 0.00 0.00 0.00 0.00 0.00 0.00 0.00 0.00 0.00 0.00 0.00 0.04 0.12 0.15 0.13 0.10 0.17 0.23 0.22 0.14 0.17 0.13 0.19 0.12 0.02 0.00 0.00
0.00 0.00 0.00 0.00 0.00 0.00 0.00 0.00 0.00 0.00 0.00 0.00 0.00 0.00 0.00 0.00 0.00 0.00 0.00 0.00 0.00 0.00 0.00 0.00 0.00 0.00 0.00 0.00 0.00 0.00 0.00 0.00 0.00 0.01 0.05 0.10 0.06 0.03 0.09 0.18 0.19 0.17 0.13 0.15 0.10 0.04 0.01 0.01 0.00
0.00 0.00 0.00 0.00 0.00 0.00 0.00 0.00 0.00 0.00 0.00 0.00 0.00 0.00 0.00 0.00 0.00 0.00 0.00 0.00 0.00 0.00 0.00 0.00 0.00 0.00 0.00 0.00 0.00 0.00 0.00 0.00 0.00 0.00 0.01 0.02 0.01 0.01 0.04 0.10 0.19 0.17 0.13 0.09 0.03 0.01 0.01 0.01 0.00
0.00 0.00 0.00 0.00 0.00 0.00 0.00 0.00 0.00 0.00 0.00 0.00 0.00 0.00 0.00 0.00 0.00 0.00 0.00 0.00 0.00 0.00 0.00 0.00 0.00 0.00 0.00 0.00 0.00 0.00 0.00 0.00 0.00 0.00 0.00 0.00 0.01 0.01 0.01 0.03 0.12 0.14 0.13 0.07 0.02 0.01 0.00 0.02 0.00
0.00 0.00 0.00 0.00 0.00 0.00 0.00 0.00 0.00 0.00 0.00 0.00 0.00 0.00 0.00 0.00 0.00 0.00 0.00 0.00 0.00 0.00 0.00 0.00 0.00 0.00 0.00 0.00 0.00 0.00 0.00 0.00 0.00 0.00 0.00 0.00 0.00 0.00 0.01 0.00 0.04 0.16 0.14 0.07 0.03 0.02 0.03 0.02 0.00
0.00 0.00 0.00 0.00 0.00 0.00 0.00 0.00 0.00 0.00 0.00 0.00 0.00 0.00 0.00 0.00 0.00 0.00 0.00 0.00 0.00 0.00 0.00 0.00 0.00 0.00 0.00 0.00 0.00 0.00 0.00 0.00 0.00 0.00 0.00 0.00 0.00 0.00 0.00 0.00 0.02 0.15 0.13 0.06 0.01 0.01 0.01 0.01 0.00
0.00 0.00 0.00 0.00 0.00 0.00 0.00 0.00 0.00 0.00 0.00 0.00 0.00 0.00 0.00 0.00 0.00 0.00 0.00 0.00 0.00 0.00 0.00 0.00 0.00 0.00 0.00 0.00 0.00 0.00 0.00 0.00 0.00 0.00 0.00 0.00 0.00 0.00 0.00 0.00 0.01 0.11 0.11 0.08 0.02 0.01 0.01 0.00 0.00
0.00 0.00 0.00 0.00 0.00 0.00 0.00 0.00 0.00 0.00 0.00 0.00 0.00 0.00 0.00 0.00 0.00 0.00 0.00 0.00 0.00 0.00 0.00 0.00 0.00 0.00 0.00 0.00 0.00 0.00 0.00 0.00 0.00 0.00 0.00 0.00 0.00 0.00 0.00 0.00 0.00 0.05 0.10 0.08 0.03 0.01 0.01 0.00 0.00
0.00 0.00 0.00 0.00 0.00 0.00 0.00 0.00 0.00 0.00 0.00 0.00 0.00 0.00 0.00 0.00 0.00 0.00 0.00 0.00 0.00 0.00 0.00 0.00 0.00 0.00 0.00 0.00 0.00 0.00 0.00 0.00 0.00 0.00 0.00 0.00 0.00 0.00 0.00 0.00 0.00 0.02 0.05 0.05 0.02 0.01 0.00 0.00 0.00
0.00 0.00 0.00 0.00 0.00 0.00 0.00 0.00 0.00 0.00 0.00 0.00 0.00 0.00 0.00 0.00 0.00 0.00 0.00 0.00 0.00 0.00 0.00 0.00 0.00 0.00 0.00 0.00 0.00 0.00 0.00 0.00 0.00 0.00 0.00 0.00 0.00 0.00 0.00 0.00 0.00 0.00 0.01 0.04 0.02 0.01 0.01 0.00 0.00
0.00 0.00 0.00 0.00 0.00 0.00 0.00 0.00 0.00 0.00 0.00 0.00 0.00 0.00 0.00 0.00 0.00 0.00 0.00 0.00 0.00 0.00 0.00 0.00 0.00 0.00 0.00 0.00 0.00 0.00 0.00 0.00 0.00 0.00 0.00 0.00 0.00 0.00 0.00 0.00 0.00 0.00 0.00 0.02 0.01 0.00 0.00 0.00 0.00
0.00 0.00 0.00 0.00 0.00 0.00 0.00 0.00 0.00 0.00 0.00 0.00 0.00 0.00 0.00 0.00 0.00 0.00 0.00 0.00 0.00 0.00 0.00 0.00 0.00 0.00 0.00 0.00 0.00 0.00 0.00 0.00 0.00 0.00 0.00 0.00 0.00 0.00 0.00 0.00 0.00 0.00 0.00 0.00 0.01 0.00 0.00 0.00 0.00
0.00 0.00 0.00 0.00 0.00 0.00 0.00 0.00 0.00 0.00 0.00 0.00 0.00 0.00 0.00 0.00 0.00 0.00 0.00 0.00 0.00 0.00 0.00 0.00 0.00 0.00 0.00 0.00 0.00 0.00 0.00 0.00 0.00 0.00 0.00 0.00 0.00 0.00 0.00 0.00 0.00 0.00 0.00 0.00 0.00 0.01 0.00 0.00 0.00
0.00 0.00 0.00 0.00 0.00 0.00 0.00 0.00 0.00 0.00 0.00 0.00 0.00 0.00 0.00 0.00 0.00 0.00 0.00 0.00 0.00 0.00 0.00 0.00 0.00 0.00 0.00 0.00 0.00 0.00 0.00 0.00 0.00 0.00 0.00 0.00 0.00 0.00 0.00 0.00 0.00 0.00 0.00 0.00 0.00 0.01 0.00 0.00 0.00
0.00 0.00 0.00 0.00 0.00 0.00 0.00 0.00 0.00 0.00 0.00 0.00 0.00 0.00 0.00 0.00 0.00 0.00 0.00 0.00 0.00 0.00 0.00 0.00 0.00 0.00 0.00 0.00 0.00 0.00 0.00 0.00 0.00 0.00 0.00 0.00 0.00 0.00 0.00 0.00 0.00 0.00 0.00 0.00 0.00 0.01 0.01 0.00 0.00
0.00 0.00 0.00 0.00 0.00 0.00 0.00 0.00 0.00 0.00 0.00 0.00 0.00 0.00 0.00 0.00 0.00 0.00 0.00 0.00 0.00 0.00 0.00 0.00 0.00 0.00 0.00 0.00 0.00 0.00 0.00 0.00 0.00 0.00 0.00 0.00 0.00 0.00 0.00 0.00 0.00 0.00 0.00 0.00 0.00 0.02 0.01 0.00 0.00
0.00 0.00 0.00 0.00 0.00 0.00 0.00 0.00 0.00 0.00 0.00 0.00 0.00 0.00 0.00 0.00 0.00 0.00 0.00 0.00 0.00 0.00 0.00 0.00 0.00 0.00 0.00 0.00 0.00 0.00 0.00 0.00 0.00 0.00 0.00 0.00 0.00 0.00 0.00 0.00 0.00 0.00 0.00 0.00 0.00 0.01 0.02 0.01 0.01
0.00 0.00 0.00 0.00 0.00 0.00 0.00 0.00 0.00 0.00 0.00 0.00 0.00 0.00 0.00 0.00 0.00 0.00 0.00 0.00 0.00 0.00 0.00 0.00 0.00 0.00 0.00 0.00 0.00 0.00 0.00 0.00 0.00 0.00 0.00 0.00 0.00 0.00 0.00 0.00 0.00 0.00 0.00 0.00 0.00 0.01 0.02 0.02 0.01
0.00 0.00 0.00 0.00 0.00 0.00 0.00 0.00 0.00 0.00 0.00 0.00 0.00 0.00 0.00 0.00 0.00 0.00 0.00 0.00 0.00 0.00 0.00 0.00 0.00 0.00 0.00 0.00 0.00 0.00 0.00 0.00 0.00 0.00 0.00 0.00 0.00 0.00 0.00 0.00 0.00 0.00 0.00 0.00 0.00 0.00 0.01 0.02 0.01
0.00 0.00 0.00 0.00 0.00 0.00 0.00 0.00 0.00 0.00 0.00 0.00 0.00 0.00 0.00 0.00 0.00 0.00 0.00 0.00 0.00 0.00 0.00 0.00 0.00 0.00 0.00 0.00 0.00 0.00 0.00 0.00 0.00 0.00 0.00 0.00 0.00 0.00 0.00 0.00 0.00 0.00 0.00 0.00 0.00 0.00 0.01 0.02 0.01
MSLP
1014.42 1014.08 1014.07 1014.40 1016.19 1017.39 1017.92 1018.13 1018.08 1017.97 1018.01 1018.15 1017.76 1018.03 1019.19 1020.05 1020.44 1022.25 1022.84 1022.97 1022.71 1022.17 1021.35 1020.56 1019.53 1018.88 1018.39 1017.74 1016.89 1016.36 1015.70 1015.03 1014.38 1014.29 1014.16 1014.21 1014.16 1014.32 1014.54 1014.75 1015.05 1015.17 1015.15 1015.30 1015.57 1015.80 1016.20 1016.46 1016.92
1014.62 1014.23 1014.50 1015.82 1017.45 1018.96 1019.24 1019.37 1019.62 1019.70 1019.75 1019.10 1019.21 1019.64 1020.25 1021.71 1022.01 1022.48 1022.89 1023.04 1022.91 1022.60 1021.95 1021.02 1020.07 1019.33 1018.65 1018.05 1017.56 1017.06 1016.51 1015.81 1015.35 1014.75 1014.43 1014.24 1014.25 1014.36 1014.54 1014.77 1015.05 1015.29 1015.48 1015.66 1015.84 1016.23 1016.43 1016.90 1017.30
1014.67 1014.76 1016.10 1017.59 1019.22 1020.35 1020.57 1020.72 1020.73 1020.30 1020.27 1019.94 1020.42 1020.91 1021.85 1022.69 1022.92 1023.52 1023.71 1023.34 1023.12 1022.91 1022.49 1021.59 1020.67 1019.89 1019.22 1018.61 1018.01 1017.77 1017.15 1016.45 1016.01 1015.43 1014.89 1014.53 1014.30 1014.41 1014.55 1014.81 1015.11 1015.48 1015.75 1015.96 1016.20 1016.45 1016.68 1017.25 1017.62
1015.13 1015.75 1017.53 1018.38 1020.06 1020.99 1021.46 1021.63 1021.57 1021.07 1020.39 1020.50 1021.19 1022.24 1022.96 1023.56 1023.76 1024.14 1024.13 1023.76 1023.24 1023.10 1022.81 1022.12 1021.20 1020.48 1019.85 1019.35 1018.79 1018.12 1017.68 1017.01 1016.45 1015.92 1015.58 1014.87 1014.55 1014.42 1014.62 1014.92 1015.16 1015.55 1015.99 1016.20 1016.44 1016.69 1016.99 1017.32 1017.76
1016.00 1017.36 1019.00 1020.09 1020.95 1021.56 1022.13 1022.37 1022.13 1021.92 1021.75 1021.76 1021.71 1022.86 1023.68 1024.22 1024.50 1024.69 1024.47 1023.92 1023.78 1023.49 1023.09 1022.66 1021.76 1021.14 1020.61 1019.91 1019.16 1018.75 1018.08 1017.49 1016.98 1016.44 1015.97 1015.64 1014.68 1014.47 1014.72 1014.99 1015.29 1015.60 1016.08 1016.48 1016.65 1016.92 1017.27 1017.58 1017.87
1017.66 1018.67 1020.17 1021.11 1021.66 1022.15 1022.50 1022.70 1022.48 1022.54 1022.48 1022.29 1022.54 1023.25 1024.27 1024.72 1024.78 1024.96 1024.75 1024.65 1024.15 1023.86 1023.42 1022.91 1022.35 1021.67 1021.18 1020.63 1020.12 1019.33 1018.68 1018.21 1017.35 1016.93 1016.52 1016.04 1015.42 1014.47 1014.50 1014.93 1015.24 1015.64 1016.05 1016.60 1016.85 1017.10 1017.48 1017.80 1018.15
1018.74 1019.96 1021.20 1021.94 1022.37 1022.64 1022.97 1022.97 1023.10 1023.11 1022.70 1022.72 1023.08 1023.73 1024.48 1025.12 1025.37 1025.29 1025.12 1024.86 1024.53 1024.17 1023.71 1023.25 1022.72 1022.25 1021.75 1021.17 1020.50 1019.99 1019.52 1018.75 1017.94 1017.44 1017.02 1016.56 1015.79 1014.87 1014.42 1014.72 1015.16 1015.55 1015.99 1016.52 1017.03 1017.36 1017.65 1018.03 1018.52
1019.94 1020.75 1022.27 1022.99 1023.09 1023.09 1023.57 1023.65 1023.72 1023.78 1023.52 1023.10 1023.18 1024.17 1025.00 1025.54 1025.59 1025.60 1025.20 1024.83 1024.59 1024.33 1024.03 1023.57 1023.00 1022.61 1022.30 1021.70 1020.99 1020.31 1019.70 1019.19 1018.52 1017.98 1017.61 1017.04 1016.22 1015.58 1014.37 1014.45 1014.86 1015.19 1015.64 1016.24 1016.96 1017.51 1017.92 1018.30 1018.87
1020.57 1021.77 1023.21 1023.10 1023.38 1023.75 1024.14 1024.37 1024.16 1024.02 1024.16 1024.22 1024.47 1024.73 1025.25 1025.61 1025.68 1025.64 1025.53 1025.28 1024.97 1024.62 1024.26 1023.80 1023.29 1022.80 1022.63 1022.01 1021.59 1021.07 1020.35 1019.83 1019.27 1018.82 1017.99 1017.57 1016.93 1016.24 1015.05 1014.40 1014.47 1014.69 1015.35 1016.06 1016.77 1017.50 1018.17 1018.70 1019.23
1021.95 1023.08 1023.53 1023.59 1023.90 1024.15 1024.22 1024.48 1024.47 1024.49 1024.66 1024.73 1024.98 1025.17 1025.44 1025.79 1026.00 1025.94 1025.77 1025.80 1025.40 1024.93 1024.39 1024.13 1023.71 1023.30 1022.90 1022.31 1022.04 1021.59 1020.89 1020.51 1020.06 1019.49 1018.55 1017.77 1017.46 1016.80 1015.94 1014.50 1014.58 1014.65 1014.91 1015.64 1016.56 1017.51 1018.19 1018.95 1019.47
1023.25 1023.84 1024.09 1024.04 1024.19 1024.52 1024.58 1024.79 1024.71 1024.82 1024.83 1024.66 1025.05 1025.53 1025.81 1026.02 1026.10 1025.92 1025.77 1025.69 1025.44 1024.93 1024.46 1024.24 1023.93 1023.53 1023.27 1022.75 1022.30 1021.91 1021.39 1020.83 1020.33 1019.69 1019.02 1018.24 1017.99 1017.04 1016.29 1014.73 1014.70 1014.76 1014.85 1015.57 1016.56 1017.64 1018.18 1018.87 1019.49
1024.12 1024.53 1024.42 1024.53 1024.78 1025.12 1024.95 1024.76 1024.83 1024.93 1024.76 1024.63 1024.88 1025.43 1025.97 1026.07 1026.01 1025.82 1025.70 1025.56 1025.18 1024.88 1024.56 1024.21 1023.91 1023.64 1023.27 1022.91 1022.64 1022.26 1021.82 1021.14 1020.56 1020.08 1019.25 1018.68 1018.49 1017.85 1016.51 1015.51 1014.18 1014.63 1014.69 1015.68 1016.62 1017.53 1018.29 1018.81 1019.52
1024.59 1024.62 1024.68 1024.99 1025.04 1025.02 1025.17 1024.93 1025.26 1024.81 1024.55 1024.69 1025.09 1025.51 1025.86 1025.80 1025.60 1025.55 1025.37 1025.21 1025.01 1024.84 1024.66 1024.29 1023.85 1023.61 1023.27 1022.90 1022.66 1022.33 1022.05 1021.47 1020.89 1020.18 1019.77 1019.08 1018.34 1016.56 1015.81 1015.77 1014.33 1014.12 1014.71 1015.48 1016.51 1017.22 1018.11 1018.88 1019.57
1025.27 1025.48 1025.58 1025.39 1025.90 1025.86 1025.88 1025.64 1025.55 1024.73 1024.62 1024.88 1025.30 1025.53 1025.76 1025.50 1025.38 1025.22 1025.06 1024.96 1024.86 1024.75 1024.58 1024.19 1023.96 1023.59 1023.29 1023.02 1022.63 1022.35 1022.08 1021.51 1021.02 1020.45 1019.82 1019.28 1018.62 1017.08 1016.61 1016.19 1014.90 1013.84 1014.78 1015.15 1015.85 1016.78 1017.91 1018.89 1019.41
1026.18 1026.48 1026.56 1026.53 1026.83 1027.03 1026.57 1026.23 1025.62 1025.05 1025.00 1025.22 1025.44 1025.60 1025.42 1025.37 1025.26 1025.00 1024.87 1024.91 1024.99 1024.91 1024.52 1024.06 1023.65 1023.56 1023.48 1023.07 1022.65 1022.26 1022.11 1021.53 1021.13 1020.52 1019.81 1019.49 1018.40 1018.20 1016.49 1016.44 1015.02 1014.01 1014.41 1014.85 1015.96 1016.90 1017.90 1018.94 1019.52
1027.79 1028.02 1028.27 1027.62 1027.53 1027.28 1027.67 1026.71 1025.63 1025.41 1025.46 1025.65 1025.49 1025.53 1025.54 1025.45 1025.22 1024.84 1024.86 1025.04 1025.10 1024.91 1024.56 1024.28 1024.01 1023.78 1023.33 1023.02 1022.74 1022.25 1021.96 1021.59 1021.17 1020.48 1019.99 1019.35 1019.51 1018.65 1016.95 1016.19 1015.33 1014.62 1014.05 1014.59 1015.63 1016.75 1018.00 1018.85 1019.81
1029.92 1030.41 1030.43 1029.04 1028.44 1028.73 1028.62 1027.53 1026.22 1025.96 1025.69 1025.46 1025.42 1025.59 1025.48 1025.33 1025.03 1024.87 1024.96 1025.14 1025.12 1024.87 1024.58 1024.40 1023.94 1023.62 1023.38 1022.93 1022.76 1022.35 1021.87 1021.44 1021.01 1020.51 1019.78 1019.25 1018.65 1018.48 1018.67 1017.14 1015.37 1015.40 1013.71 1014.77 1015.31 1016.56 1017.26 1018.54 1019.76
1032.18 1032.14 1031.35 1030.81 1029.38 1029.32 1028.87 1027.88 1026.67 1025.87 1025.65 1025.42 1025.56 1025.65 1025.58 1025.37 1025.07 1025.02 1025.00 1024.94 1024.85 1024.61 1024.45 1024.28 1024.01 1023.71 1023.31 1023.07 1022.64 1022.26 1021.82 1021.28 1020.83 1020.37 1019.67 1018.91 1018.50 1017.33 1017.69 1016.82 1015.87 1016.16 1015.19 1014.42 1015.30 1015.88 1017.20 1018.09 1019.46
1032.72 1032.97 1032.65 1031.10 1030.34 1030.23 1029.14 1028.32 1026.68 1025.69 1025.33 1025.29 1025.27 1025.17 1025.54 1025.59 1025.34 1025.10 1024.90 1024.71 1024.39 1024.14 1024.06 1023.98 1023.92 1023.54 1023.31 1023.01 1022.56 1022.03 1021.75 1021.12 1020.70 1020.21 1019.50 1018.94 1018.71 1018.79 1017.04 1016.86 1016.05 1016.26 1014.92 1014.20 1015.09 1015.23 1016.82 1018.53 1019.38
1032.40 1032.80 1032.75 1031.23 1030.96 1031.46 1029.96 1028.25 1026.71 1025.82 1025.32 1025.10 1025.17 1025.21 1025.45 1025.50 1025.49 1025.17 1024.85 1024.48 1024.25 1024.01 1023.75 1023.62 1023.38 1023.08 1022.88 1022.75 1022.26 1021.83 1021.49 1020.95 1020.47 1019.92 1019.39 1018.82 1018.44 1018.03 1017.29 1017.21 1016.28 1015.63 1015.44 1013.61 1014.41 1014.65 1016.76 1018.30 1018.46
1032.02 1032.59 1033.05 1033.50 1031.99 1031.87 1031.26 1028.97 1027.52 1025.98 1025.40 1025.12 1025.06 1025.48 1025.42 1025.40 1025.28 1025.04 1024.69 1024.36 1023.96 1023.66 1023.33 1022.99 1022.82 1022.64 1022.27 1022.06 1021.74 1021.31 1020.95 1020.63 1020.22 1019.58 1019.08 1018.72 1018.04 1017.91 1018.07 1017.68 1016.90 1016.45 1015.31 1014.85 1013.36 1014.22 1015.44 1017.29 1018.29
1032.71 1032.49 1033.37 1033.52 1033.67 1034.39 1033.32 1031.69 1028.54 1026.81 1025.95 1025.40 1025.51 1025.39 1025.45 1025.42 1025.18 1024.87 1024.36 1023.91 1023.48 1023.08 1022.74 1022.44 1022.18 1021.93 1021.64 1021.34 1021.16 1020.98 1020.68 1020.14 1019.85 1019.39 1018.63 1018.33 1018.09 1017.64 1016.71 1016.75 1016.65 1016.58 1015.47 1016.19 1014.08 1013.61 1014.49 1015.78 1017.10
1032.51 1032.63 1033.42 1033.96 1034.76 1035.66 1035.09 1034.48 1027.97 1027.17 1026.27 1025.46 1025.12 1025.07 1025.18 1025.21 1025.04 1024.54 1023.89 1023.33 1022.72 1022.37 1022.14 1021.67 1021.16 1020.88 1020.59 1020.42 1020.33 1020.21 1019.90 1019.61 1019.21 1018.93 1018.28 1017.73 1017.66 1017.57 1017.06 1016.43 1016.22 1015.91 1015.18 1014.93 1014.36 1013.34 1013.61 1014.65 1015.96
1032.85 1033.17 1033.62 1034.47 1035.28 1036.36 1035.89 1035.22 1029.53 1027.25 1025.89 1025.17 1024.87 1024.84 1024.94 1024.76 1024.36 1023.84 1023.17 1022.54 1022.02 1021.60 1021.09 1020.73 1020.47 1020.12 1019.95 1019.60 1019.27 1019.10 1018.99 1018.94 1018.68 1018.31 1017.95 1017.34 1016.89 1016.95 1017.01 1016.83 1016.36 1015.22 1014.98 1014.95 1013.46 1013.38 1012.68 1014.10 1015.25
1034.10 1034.49 1035.48 1035.84 1036.44 1036.93 1035.91 1035.19 1028.71 1026.27 1025.44 1025.17 1024.80 1024.46 1024.38 1024.21 1023.95 1023.42 1022.61 1021.85 1021.22 1020.69 1020.26 1019.92 1019.57 1019.18 1018.97 1018.78 1018.50 1018.16 1017.96 1017.79 1017.67 1017.55 1017.29 1017.00 1016.33 1015.93 1016.14 1015.68 1015.52 1014.77 1014.16 1013.77 1013.59 1013.18 1012.19 1013.40 1014.30
1036.59 1037.29 1038.85 1040.14 1040.15 1038.34 1035.92 1033.75 1027.18 1025.60 1025.01 1024.83 1024.48 1024.15 1023.97 1023.74 1023.22 1022.51 1021.66 1020.88 1020.30 1019.79 1019.36 1018.93 1018.46 1017.86 1017.80 1017.55 1017.22 1017.13 1016.96 1016.70 1016.49 1016.60 1016.45 1016.20 1015.72 1015.13 1015.19 1015.13 1014.93 1014.07 1014.33 1013.58 1013.57 1012.65 1011.98 1013.00 1013.71
1037.48 1038.86 1039.91 1040.73 1041.90 1041.11 1035.91 1032.12 1026.93 1025.24 1024.74 1024.65 1024.55 1024.40 1023.80 1022.99 1022.30 1021.43 1020.65 1020.18 1019.40 1018.74 1018.16 1017.84 1017.36 1016.75 1016.29 1015.93 1015.89 1015.71 1015.63 1015.60 1015.45 1015.47 1015.57 1015.35 1015.12 1014.63 1014.43 1014.57 1013.60 1013.62 1014.27 1013.55 1012.92 1012.20 1011.45 1012.32 1013.10
1038.13 1039.80 1040.86 1041.91 1042.93 1041.16 1036.23 1033.66 1029.20 1026.07 1025.21 1024.89 1024.67 1024.27 1023.56 1022.60 1021.69 1020.72 1020.02 1019.27 1018.55 1017.83 1017.27 1016.89 1016.38 1015.80 1015.24 1014.89 1014.70 1014.56 1014.53 1014.23 1014.23 1014.25 1014.32 1014.30 1014.42 1014.17 1013.84 1013.42 1013.49 1013.90 1013.23 1012.56 1012.57 1011.68 1011.39 1011.64 1012.77
1039.51 1040.78 1041.99 1042.64 1042.99 1042.58 1039.93 1031.25 1026.65 1025.84 1025.23 1025.39 1024.70 1024.46 1023.57 1022.45 1021.23 1020.17 1019.16 1018.44 1017.62 1017.02 1016.45 1015.93 1015.44 1014.73 1014.19 1013.79 1013.44 1013.20 1013.33 1013.09 1013.08 1013.04 1013.12 1013.18 1013.35 1013.50 1013.35 1013.42 1013.25 1012.75 1012.06 1011.90 1011.93 1011.20 1011.07 1010.88 1012.24
1039.16 1040.42 1041.30 1042.94 1043.44 1043.07 1041.00 1032.01 1025.70 1025.42 1025.28 1025.24 1024.79 1024.19 1023.23 1022.47 1021.04 1019.92 1018.87 1017.75 1016.87 1016.02 1015.56 1015.14 1014.42 1013.70 1013.15 1012.57 1012.18 1011.82 1011.85 1011.78 1011.83 1011.87 1012.06 1012.24 1012.35 1012.33 1012.72 1012.67 1012.40 1012.24 1012.12 1011.85 1011.88 1010.33 1010.44 1010.53 1011.50
Thickness
5730 5733 5732 5724 5699 5681 5681 5684 5679 5675 5676 5677 5678 5674 5657 5647 5652 5646 5629 5627 5629 5633 5638 5645 5654 5660 5664 5670 5678 5683 5690 5697 5703 5705 5708 5709 5712 5713 5713 5712 5711 5712 5714 5714 5712 5710 5707 5705 5702
5728 5730 5725 5703 5678 5669 5667 5667 5662 5661 5660 5662 5664 5658 5646 5630 5630 5629 5623 5617 5619 5622 5628 5633 5642 5650 5656 5662 5668 5672 5678 5686 5691 5697 5702 5705 5707 5709 5709 5709 5709 5709 5710 5709 5709 5706 5704 5701 5698
5725 5723 5704 5678 5654 5662 5659 5653 5649 5654 5651 5651 5649 5635 5625 5618 5617 5611 5608 5606 5606 5609 5614 5621 5627 5638 5645 5651 5658 5660 5666 5675 5681 5688 5695 5699 5703 5704 5705 5705 5705 5705 5705 5705 5704 5703 5702 5698 5695
5717 5708 5689 5671 5669 5651 5646 5637 5634 5637 5647 5638 5629 5609 5604 5599 5596 5592 5592 5596 5596 5596 5599 5606 5614 5622 5631 5637 5643 5651 5656 5663 5671 5678 5685 5691 5696 5699 5700 5700 5701 5701 5700 5700 5700 5699 5698 5696 5693
5706 5689 5666 5660 5657 5644 5635 5625 5628 5627 5622 5617 5612 5595 5582 5578 5574 5572 5575 5579 5580 5581 5584 5589 5598 5605 5613 5623 5631 5637 5645 5652 5659 5667 5675 5681 5688 5692 5694 5694 5695 5695 5695 5694 5695 5695 5694 5692 5691
5688 5677 5657 5653 5648 5635 5628 5613 5620 5609 5604 5600 5593 5579 5567 5558 5556 5554 5555 5558 5561 5563 5566 5572 5580 5588 5596 5604 5613 5623 5632 5639 5649 5656 5664 5671 5677 5684 5689 5689 5690 5690 5690 5689 5690 5690 5689 5688 5687
5677 5660 5649 5645 5639 5633 5618 5601 5604 5592 5587 5586 5572 5560 5553 5541 5535 5533 5533 5535 5539 5543 5548 5554 5563 5570 5578 5587 5597 5607 5615 5626 5637 5645 5653 5661 5669 5677 5681 5685 5684 5685 5685 5685 5684 5685 5685 5684 5681
5660 5651 5642 5617 5619 5625 5599 5590 5588 5576 5569 5562 5557 5538 5531 5520 5514 5509 5510 5513 5518 5523 5528 5536 5545 5554 5561 5571 5580 5592 5603 5612 5624 5632 5640 5650 5660 5668 5674 5680 5681 5684 5684 5681 5679 5679 5679 5679 5675
5659 5634 5623 5624 5615 5605 5586 5577 5568 5558 5550 5541 5528 5520 5506 5495 5488 5484 5482 5485 5490 5497 5504 5514 5525 5536 5545 5554 5564 5574 5586 5597 5608 5618 5630 5638 5647 5656 5665 5673 5678 5680 5679 5678 5676 5674 5673 5671 5669
5633 5619 5620 5611 5601 5589 5576 5564 5554 5545 5527 5520 5507 5494 5478 5465 5456 5452 5452 5454 5460 5467 5477 5487 5500 5512 5524 5535 5547 5557 5569 5579 5591 5602 5616 5628 5635 5645 5655 5666 5671 5674 5676 5676 5672 5669 5668 5664 5663
5626 5614 5608 5602 5592 5577 5565 5548 5541 5529 5516 5501 5484 5462 5448 5436 5428 5425 5429 5430 5433 5441 5451 5464 5477 5489 5503 5515 5528 5539 5551 5563 5576 5589 5602 5615 5625 5636 5645 5660 5664 5667 5672 5669 5665 5663 5662 5661 5659
5616 5604 5598 5589 5577 5561 5553 5542 5531 5517 5500 5488 5466 5441 5426 5416 5411 5410 5412 5415 5420 5426 5434 5445 5457 5470 5483 5496 5508 5519 5532 5546 5560 5574 5588 5601 5611 5620 5637 5649 5662 5663 5666 5664 5659 5657 5656 5657 5655
5609 5598 5588 5577 5563 5554 5540 5526 5512 5503 5489 5472 5448 5431 5417 5410 5408 5406 5407 5411 5416 5421 5426 5433 5442 5451 5463 5474 5487 5500 5512 5528 5542 5558 5571 5587 5602 5605 5621 5637 5653 5660 5660 5659 5655 5655 5653 5652 5651
5594 5585 5570 5569 5550 5538 5527 5510 5503 5497 5483 5458 5437 5424 5415 5413 5411 5412 5411 5413 5416 5419 5422 5427 5432 5437 5445 5454 5463 5478 5493 5510 5526 5541 5557 5570 5585 5604 5613 5620 5641 5655 5652 5654 5655 5655 5651 5648 5647
5585 5574 5559 5553 5533 5520 5511 5494 5491 5486 5468 5447 5434 5422 5418 5414 5412 5412 5412 5413 5413 5414 5417 5422 5426 5429 5431 5435 5444 5458 5472 5489 5507 5525 5542 5554 5572 5586 5605 5609 5629 5644 5646 5649 5647 5646 5644 5640 5639
5557 5551 5539 5540 5523 5513 5496 5479 5491 5472 5458 5438 5431 5422 5417 5413 5412 5412 5410 5410 5408 5409 5413 5415 5416 5419 5423 5423 5429 5439 5453 5471 5487 5508 5526 5542 5552 5571 5590 5603 5619 5629 5640 5642 5641 5640 5637 5636 5633
5530 5505 5511 5512 5512 5493 5477 5467 5470 5462 5449 5436 5427 5420 5416 5412 5412 5410 5408 5406 5404 5404 5406 5407 5409 5410 5411 5411 5412 5422 5437 5452 5470 5490 5511 5528 5547 5559 5563 5582 5608 5614 5633 5633 5638 5634 5638 5635 5630
5518 5496 5499 5488 5505 5484 5471 5463 5466 5458 5443 5430 5419 5414 5412 5409 5410 5408 5406 5402 5400 5400 5399 5398 5399 5399 5400 5400 5399 5408 5422 5438 5453 5473 5495 5515 5533 5556 5565 5578 5593 5598 5613 5628 5630 5634 5631 5632 5627
5507 5477 5472 5481 5491 5472 5465 5455 5464 5459 5445 5428 5418 5412 5406 5404 5404 5402 5401 5399 5398 5397 5394 5391 5389 5390 5390 5391 5391 5397 5407 5423 5437 5456 5478 5497 5513 5529 5558 5571 5579 5589 5608 5624 5625 5631 5626 5619 5619
5505 5477 5472 5491 5484 5464 5456 5458 5458 5458 5449 5435 5419 5407 5403 5403 5396 5394 5394 5394 5391 5391 5388 5384 5382 5382 5382 5384 5387 5390 5398 5411 5424 5441 5460 5482 5500 5522 5542 5552 5573 5584 5599 5623 5623 5628 5619 5614 5620
5515 5488 5458 5458 5470 5459 5438 5454 5446 5456 5442 5431 5418 5404 5401 5397 5392 5388 5387 5385 5384 5382 5382 5381 5378 5377 5378 5380 5383 5386 5392 5402 5413 5428 5447 5466 5487 5506 5523 5537 5553 5566 5589 5601 5624 5624 5622 5615 5613
5483 5498 5477 5466 5430 5412 5418 5419 5436 5443 5430 5430 5409 5398 5391 5389 5386 5383 5382 5380 5378 5378 5377 5376 5374 5373 5374 5376 5378 5381 5384 5394 5403 5416 5435 5453 5471 5492 5519 5535 5543 5554 5573 5577 5604 5621 5621 5620 5616
5502 5488 5468 5459 5400 5381 5406 5355 5436 5429 5437 5425 5410 5397 5388 5382 5379 5378 5377 5376 5374 5373 5371 5373 5374 5372 5371 5370 5373 5375 5380 5385 5395 5405 5421 5442 5459 5476 5500 5520 5534 5547 5563 5576 5592 5612 5621 5621 5620
5493 5471 5467 5438 5409 5386 5366 5363 5426 5428 5428 5428 5414 5396 5387 5381 5377 5373 5374 5371 5371 5370 5369 5368 5366 5367 5364 5364 5365 5369 5373 5376 5384 5394 5408 5428 5449 5467 5484 5501 5520 5543 5554 5566 5590 5604 5619 5619 5618
5460 5443 5442 5460 5430 5430 5375 5359 5427 5433 5425 5417 5407 5398 5387 5377 5370 5367 5369 5369 5368 5366 5364 5361 5359 5358 5356 5355 5357 5359 5364 5370 5375 5384 5397 5414 5437 5458 5474 5495 5512 5532 5548 5564 5577 5594 5615 5617 5618
5437 5399 5402 5431 5412 5412 5385 5364 5445 5429 5424 5411 5408 5397 5386 5374 5369 5370 5368 5367 5363 5359 5356 5351 5348 5348 5343 5345 5346 5349 5353 5360 5369 5374 5385 5402 5426 5449 5464 5483 5503 5526 5533 5554 5566 5588 5607 5612 5616
5443 5408 5397 5336 5312 5306 5384 5394 5435 5435 5418 5411 5398 5391 5378 5381 5374 5370 5366 5360 5356 5350 5344 5338 5334 5332 5329 5331 5332 5337 5341 5348 5358 5365 5374 5390 5412 5437 5454 5470 5502 5513 5521 5540 5560 5580 5601 5607 5613
5424 5402 5387 5330 5369 5388 5401 5339 5410 5416 5422 5409 5395 5385 5375 5374 5368 5366 5359 5354 5348 5340 5333 5323 5315 5309 5304 5304 5307 5314 5324 5334 5346 5355 5365 5380 5397 5422 5439 5463 5485 5498 5517 5538 5550 5573 5591 5601 5606
5405 5367 5354 5345 5319 5321 5310 5438 5402 5407 5408 5384 5382 5369 5362 5359 5361 5356 5352 5347 5338 5326 5317 5305 5295 5289 5285 5284 5288 5293 5305 5317 5330 5346 5357 5370 5387 5408 5430 5448 5472 5496 5516 5531 5544 5568 5582 5597 5600
5388 5380 5361 5368 5331 5268 5254 5375 5416 5397 5382 5344 5357 5358 5355 5349 5351 5345 5339 5334 5326 5317 5302 5288 5280 5274 5268 5267 5273 5278 5292 5304 5318 5334 5346 5358 5377 5400 5418 5439 5462 5486 5502 5519 5534 5564 5577 5592 5597